Lapse_Rate
6.8 6.7 6.2 6.3 6.4 6.1 5.9 6.2 5.8 5.7 5.4 4.7 4.7 5.4 5.1 5.1 5.2 4.7 4.7 5.2 6.2 6.1 5.6 5.6 5.4 5.7 5.7 5.6 5.7 5.7 5.8 6.1 6.0 5.9 5.7 6.0 6.1 6.0 5.8 6.0 6.0 6.0 5.9
6.9 6.5 6.1 6.1 6.3 6.4 5.9 5.9 5.2 5.5 4.9 4.8 4.7 4.9 4.5 5.0 5.0 4.9 4.8 5.3 6.3 5.8 5.4 5.5 5.4 5.7 5.8 5.8 6.0 5.8 5.7 5.9 5.9 5.7 5.5 5.9 6.0 5.9 5.9 5.9 5.9 5.9 6.0
6.7 6.6 6.5 6.2 6.3 6.5 6.5 6.4 5.9 5.5 5.3 5.1 5.1 4.7 4.7 4.6 4.6 5.1 4.9 6.0 6.2 6.2 5.8 5.5 5.4 5.6 5.7 5.8 5.7 5.7 5.5 5.8 5.8 5.6 5.5 5.7 5.8 5.8 5.8 5.9 5.9 5.7 5.8
6.6 6.8 6.6 6.6 6.4 6.6 6.5 6.3 5.8 5.4 5.3 5.0 5.2 5.3 5.0 5.0 4.8 5.2 5.0 5.5 6.4 6.0 5.8 5.7 5.7 5.4 5.6 5.8 5.8 5.6 5.5 5.6 5.7 5.5 5.5 5.6 5.7 5.7 5.9 5.8 5.7 5.6 5.7
6.2 6.7 6.7 6.6 6.9 6.8 6.8 6.4 6.0 5.7 5.3 5.4 5.2 4.8 4.7 4.9 4.8 5.1 5.1 6.3 6.7 6.0 5.6 5.7 5.7 5.4 5.6 5.6 5.8 5.7 5.7 5.6 5.6 5.3 5.3 5.5 5.5 5.6 5.7 5.7 5.6 5.6 5.5
6.3 6.2 6.9 6.9 6.8 6.8 6.5 6.2 6.0 5.7 5.4 5.5 4.9 4.9 4.8 4.9 5.0 5.1 4.9 5.9 5.8 5.9 5.8 5.9 5.5 5.7 5.6 5.8 5.8 5.6 5.6 5.6 5.7 5.3 5.3 5.3 5.3 5.4 5.6 5.6 5.4 5.4 5.4
6.2 6.3 6.0 5.8 6.3 6.5 6.7 6.5 6.0 5.6 5.5 5.0 4.8 4.7 4.6 4.8 4.7 4.8 4.8 5.6 6.3 6.4 6.4 6.0 5.9 6.1 6.2 6.1 5.7 5.6 5.6 5.7 5.7 5.3 5.1 5.1 5.3 5.3 5.3 5.4 5.4 5.4 5.4
5.9 6.1 5.8 5.8 5.7 6.4 6.7 6.5 6.0 5.3 5.2 5.0 4.7 4.7 4.7 4.8 4.7 4.8 4.6 5.0 6.0 6.7 6.4 5.9 5.9 6.1 6.4 6.3 5.8 5.6 5.6 5.6 5.5 5.3 5.2 5.1 5.1 5.2 5.1 5.2 5.2 5.3 5.4
5.7 6.2 6.1 6.0 5.9 6.1 5.9 5.6 5.6 5.6 5.1 4.9 4.9 4.6 4.4 4.5 4.9 5.1 4.8 5.2 5.8 6.6 6.4 5.8 6.0 6.1 6.1 6.0 5.8 5.7 5.6 5.5 5.4 5.3 5.1 5.1 5.2 5.0 4.9 5.1 5.1 5.1 5.3
5.6 6.3 6.4 6.4 6.4 6.2 6.2 5.9 5.7 5.2 4.9 4.9 5.0 4.9 4.8 5.1 5.0 5.4 5.1 6.0 6.7 6.8 6.8 6.4 6.4 6.3 5.9 5.8 5.6 5.6 5.5 5.4 5.4 5.3 5.1 5.1 5.0 4.9 4.9 4.9 4.9 5.0 5.0
5.8 5.9 6.3 6.4 6.4 6.4 6.3 6.0 5.7 5.5 5.3 5.2 5.3 5.2 5.2 5.3 5.3 5.6 5.6 5.8 6.3 6.6 6.9 6.6 6.7 6.3 6.2 6.3 6.0 5.8 5.5 5.4 5.4 5.5 5.2 4.8 4.9 5.0 4.7 4.7 4.8 4.9 4.8
6.0 5.9 6.3 6.5 6.4 6.5 6.2 5.8 5.6 5.5 5.4 5.6 5.5 5.4 5.2 5.0 5.1 5.3 5.4 5.7 6.2 6.2 6.3 6.9 7.0 7.0 6.7 6.4 6.7 6.3 5.9 5.6 5.4 5.4 5.1 4.9 4.9 4.8 4.7 4.7 4.7 4.8 4.7
6.3 6.3 6.5 6.6 6.6 6.7 6.5 6.2 6.0 6.1 6.3 5.9 5.9 5.6 5.5 5.4 5.4 5.7 6.1 6.5 6.3 6.5 6.8 6.9 7.3 7.6 7.0 6.7 7.0 6.5 6.0 5.6 5.3 5.2 5.0 4.9 4.8 4.7 4.7 4.6 4.7 4.6 4.6
5.9 6.3 6.2 6.3 6.5 6.6 6.7 6.6 6.5 6.6 6.7 6.3 5.8 5.5 5.1 5.1 5.3 5.4 5.4 6.0 6.4 6.9 7.5 7.7 7.6 7.5 7.3 7.4 7.1 6.4 6.1 5.7 5.6 5.4 5.0 5.0 4.8 4.7 4.7 4.7 4.7 4.7 4.5
5.3 6.0 6.0 6.1 6.5 6.8 6.9 6.8 6.7 6.8 6.6 6.7 6.2 5.7 5.2 5.1 5.0 5.1 5.8 6.1 6.6 6.8 7.5 7.8 7.9 7.9 7.7 7.4 7.0 6.8 6.5 6.0 5.6 5.3 5.2 5.1 4.9 4.7 4.7 4.7 4.7 4.6 4.5
5.0 5.7 5.8 6.1 6.3 6.5 6.8 6.9 6.8 6.7 6.7 6.7 6.5 6.2 6.0 5.7 5.7 6.2 6.5 6.4 6.8 7.2 7.8 8.0 8.1 7.7 7.6 7.4 7.1 6.8 6.5 6.2 5.9 5.6 5.3 5.3 4.8 4.8 4.6 4.6 4.7 4.6 4.4
4.7 5.2 5.5 5.8 6.2 6.3 6.8 6.8 6.9 6.8 6.9 6.8 6.7 6.6 6.3 6.1 5.4 6.2 6.5 6.7 6.9 7.1 7.1 7.2 7.5 7.9 7.5 7.5 7.5 7.4 6.9 6.6 6.0 5.6 5.4 5.2 5.1 4.8 4.6 4.5 4.6 4.5 4.4
4.8 5.1 5.5 6.0 6.2 6.6 6.7 6.8 6.9 6.9 7.0 7.0 6.9 6.9 6.7 6.5 6.3 6.1 6.4 7.1 6.9 7.0 7.2 7.2 7.5 7.5 7.5 7.4 7.4 7.3 6.9 6.7 6.5 6.0 5.5 4.9 4.8 4.6 4.5 4.5 4.4 4.3 4.2
5.0 5.3 5.6 5.9 6.0 6.4 6.6 6.8 6.9 7.2 7.3 7.1 6.9 6.6 6.5 6.4 6.4 6.7 6.7 6.7 7.0 7.2 7.4 7.5 7.0 7.2 7.2 7.1 7.2 7.3 7.1 6.9 6.6 6.4 6.0 5.4 4.9 4.7 4.7 4.6 4.5 4.3 4.4
5.2 5.5 5.6 5.7 5.9 6.1 6.1 6.2 6.3 6.6 6.8 6.9 6.8 6.5 6.2 6.1 6.1 6.1 6.3 6.8 6.7 6.6 6.7 7.1 7.1 7.0 6.7 6.9 7.1 6.9 6.8 6.7 6.5 6.3 6.0 5.6 4.8 4.8 4.8 4.8 4.5 4.5 4.3
4.9 5.2 5.3 5.6 5.8 5.9 6.0 6.0 6.2 6.4 6.5 6.5 6.6 6.7 6.4 6.2 6.1 6.1 5.9 6.2 6.1 6.2 6.3 6.6 6.7 6.8 6.7 6.8 7.0 7.3 7.1 6.7 6.4 6.2 6.1 5.2 4.6 4.7 4.7 4.8 4.7 4.5 4.7
4.5 4.8 5.1 5.4 6.1 6.2 6.3 6.2 6.1 6.2 6.3 6.4 6.6 6.7 6.7 6.5 6.3 6.1 5.8 5.7 5.9 5.9 6.0 6.1 6.3 6.4 6.4 6.4 6.8 6.9 6.4 6.5 6.5 5.9 5.4 4.9 4.7 4.7 4.8 4.8 4.7 4.9 4.6
4.4 4.7 5.0 5.2 5.8 6.2 6.6 6.6 6.6 6.4 6.4 6.4 6.5 6.5 6.4 6.5 6.5 6.5 6.4 6.1 5.9 5.8 5.9 5.9 6.2 6.2 6.1 5.8 5.8 5.8 5.9 6.0 5.8 5.6 4.9 4.4 4.4 4.7 4.9 4.9 5.0 4.8 4.6
4.7 4.9 4.7 4.5 4.7 5.3 6.0 6.4 6.4 6.5 6.5 6.6 6.5 6.5 6.7 6.7 6.7 6.6 6.5 6.5 6.4 6.1 6.0 5.9 5.8 5.8 5.8 5.9 5.6 5.3 5.3 5.3 4.9 4.9 4.4 4.2 4.2 4.6 5.0 5.0 4.9 4.7 4.0
4.0 4.0 4.3 4.5 4.5 4.8 5.1 5.5 5.8 6.1 6.4 6.4 6.5 6.7 6.7 6.7 6.9 6.8 6.7 6.3 6.4 6.4 6.2 5.8 5.5 5.4 5.5 5.2 4.7 4.4 4.4 4.2 4.0 3.7 3.9 4.0 4.4 4.6 4.7 4.8 4.4 3.8 3.9
4.3 4.3 4.0 4.3 4.2 4.5 4.6 4.5 5.2 5.2 5.6 5.9 6.4 6.6 7.0 7.1 6.9 7.0 7.0 6.6 6.4 6.4 6.3 6.0 5.4 5.1 4.8 4.7 4.4 4.2 4.1 4.1 4.2 4.3 4.3 4.4 4.5 4.6 4.5 4.0 3.7 3.7 3.8
Wind_Speed
13 11 9 11 11 12 12 13 15 19 12 10 10 7 8 8 8 9 18 19 19 21 18 12 12 12 8 8 7 4 5 3 3 4 2 2 1 2 3 5 5 5 5
13 11 10 11 14 14 14 12 14 16 16 13 11 7 8 5 7 8 14 19 19 20 18 15 9 12 6 7 6 5 4 2 4 4 2 1 2 1 3 3 3 5 5
16 15 14 15 15 14 15 15 15 17 16 15 11 8 6 5 3 5 7 10 19 20 19 17 14 10 9 9 9 7 6 4 3 1 3 2 4 1 1 2 2 3 4
15 14 16 17 17 15 13 13 13 14 13 17 14 17 11 10 7 10 9 8 16 17 17 18 16 14 10 8 8 6 3 5 5 1 1 2 2 3 1 1 2 3 4
13 17 18 17 18 16 15 13 13 15 14 15 15 13 13 9 7 7 10 9 9 16 18 18 17 12 10 8 8 7 6 3 4 3 3 1 2 2 3 2 2 1 2
12 14 16 14 13 14 15 15 16 15 16 15 15 16 16 12 10 9 9 9 9 9 14 15 15 15 12 8 8 7 7 6 4 3 3 4 4 3 3 2 2 2 2
14 2 4 8 12 16 18 16 17 16 16 17 15 15 15 16 17 16 12 12 9 7 12 13 13 10 15 14 13 8 7 7 5 6 4 2 2 3 3 3 2 2 2
15 15 14 10 5 14 19 19 19 18 18 16 17 17 17 12 11 13 10 10 11 11 13 12 14 16 17 14 14 5 5 5 5 7 5 3 3 3 3 4 4 1 2
15 16 15 13 11 10 3 16 16 15 15 16 15 15 15 14 12 13 12 10 10 8 12 12 12 11 14 14 12 8 8 6 5 6 6 3 3 3 3 3 3 4 3
15 14 14 14 12 11 10 9 15 13 18 18 15 14 16 15 12 11 13 13 11 11 12 12 13 12 11 12 12 7 6 8 4 4 6 4 3 4 3 3 3 2 3
14 14 13 12 12 12 12 10 10 4 12 15 18 16 12 13 12 11 11 11 12 13 13 14 13 13 13 12 11 10 10 10 8 5 7 7 6 4 4 3 2 3 3
13 13 13 14 14 14 13 12 12 11 8 13 13 13 10 12 11 10 11 11 12 12 14 13 12 13 13 12 14 12 11 12 11 9 8 7 5 6 5 4 5 4 3
14 14 14 14 14 14 13 13 12 12 11 10 12 11 12 13 13 12 13 13 12 13 12 14 15 14 14 13 13 13 12 13 12 11 11 10 9 7 5 4 5 4 3
14 14 13 12 13 13 13 13 12 12 12 10 5 12 13 15 14 13 14 13 13 13 13 13 13 13 14 14 13 12 12 11 10 11 11 11 12 11 9 7 6 5 4
15 14 14 12 13 14 13 13 12 12 13 11 9 5 12 13 13 13 14 14 14 13 13 13 13 13 12 10 13 13 12 12 11 10 10 10 12 16 14 7 6 6 4
16 16 15 14 14 14 14 13 13 12 12 11 10 9 5 12 12 12 12 11 12 12 12 13 13 13 10 18 23 17 12 13 13 12 10 9 15 15 18 16 16 11 8
16 16 14 13 13 13 13 12 12 12 11 11 10 9 7 8 11 12 13 13 13 12 13 12 11 12 12 20 23 23 11 12 12 12 11 9 8 12 9 16 16 15 15
16 15 12 13 13 12 12 12 11 10 10 10 10 9 9 5 6 13 14 13 12 13 12 12 12 12 11 20 23 23 10 11 12 12 13 13 12 11 12 9 7 6 5
12 12 11 12 12 11 11 12 11 10 9 9 9 10 9 7 3 7 11 10 11 10 10 10 11 11 9 19 22 19 9 8 9 10 11 12 12 18 20 10 8 6 4
13 13 14 12 12 12 11 10 9 10 9 10 10 10 9 7 5 5 7 8 8 9 7 8 10 14 9 19 21 19 7 8 6 7 9 20 15 23 22 10 9 7 5
15 15 12 11 12 11 10 10 9 8 9 10 10 9 8 6 5 3 3 5 7 6 6 7 5 7 9 13 23 24 10 8 8 8 8 9 22 23 21 14 7 6 5
15 13 11 11 12 11 9 9 10 10 9 10 10 9 8 4 3 4 4 5 6 7 6 7 5 4 7 15 21 24 16 15 9 9 8 10 22 22 20 12 12 11 8
12 11 10 12 11 10 9 10 10 10 10 9 10 9 7 4 3 4 5 5 6 6 6 6 6 6 5 7 21 23 18 17 8 8 14 21 22 21 15 15 13 10 4
13 11 11 10 11 9 11 9 10 9 9 10 9 8 5 2 1 1 3 5 6 5 6 6 6 6 6 7 9 9 9 15 10 16 13 15 15 14 12 9 7 4 3
10 8 8 9 10 10 10 9 9 8 8 8 7 6 4 2 1 1 3 4 5 8 9 8 8 9 9 10 16 13 9 9 11 13 10 9 9 8 7 5 5 3 3
11 11 10 9 9 8 8 8 6 6 6 6 4 3 2 1 3 3 2 6 6 10 11 11 9 5 10 19 21 22 22 21 25 10 9 8 8 7 6 6 4 3 3
Wind_Direction
199 190 170 168 158 165 162 164 161 154 151 140 135 144 156 158 157 159 160 158 157 155 152 152 153 155 157 155 139 121 124 91 137 104 16 355 39 153 232 211 203 191 188
190 187 167 168 176 172 172 167 168 165 165 159 162 161 157 166 161 170 160 158 158 161 162 158 168 165 141 144 150 155 136 101 178 135 124 163 338 301 222 215 216 221 189
189 185 176 180 185 175 175 178 176 173 167 158 139 129 95 95 105 156 161 165 165 166 163 162 163 165 164 170 171 169 158 137 193 213 149 107 215 146 296 237 215 208 203
197 187 185 186 187 186 178 180 176 171 164 158 151 158 157 166 179 180 174 163 165 165 161 164 164 174 173 170 175 177 163 130 155 126 186 58 127 168 186 316 257 223 228
209 189 193 189 187 181 180 182 175 173 168 164 156 157 162 176 162 171 161 160 159 167 171 173 169 174 173 178 172 175 174 161 145 150 159 113 52 59 120 188 266 308 247
218 211 198 183 182 177 180 183 180 173 169 168 161 169 166 164 156 161 167 171 174 174 173 170 177 175 180 177 183 183 187 175 140 161 177 163 165 190 144 120 218 210 286
18 326 146 194 186 182 184 181 173 174 176 170 167 180 175 176 175 176 179 172 176 182 185 177 177 181 181 181 179 186 193 180 169 170 195 162 161 139 125 112 137 203 306
37 28 28 12 284 202 187 180 174 173 169 171 178 187 185 189 186 179 176 184 189 189 179 185 189 184 181 177 179 187 194 176 175 176 177 174 176 154 158 149 138 35 309
28 24 18 17 3 3 240 195 182 164 165 180 185 188 189 186 186 182 181 183 179 177 175 182 184 176 181 176 179 191 187 179 174 178 179 165 172 163 151 143 141 148 179
28 21 19 7 5 5 2 350 209 191 179 178 191 189 192 194 185 174 182 181 174 166 170 180 185 181 179 179 178 182 166 178 170 163 169 169 161 162 156 149 129 109 144
21 20 11 10 5 12 11 9 12 238 188 195 186 197 195 191 182 177 179 174 166 169 173 183 186 182 186 183 186 183 175 185 172 159 173 182 161 164 165 151 133 141 140
28 24 15 11 8 10 12 8 9 9 349 206 207 198 176 186 185 179 172 171 174 173 180 182 183 187 189 183 191 186 184 183 182 177 168 178 171 169 170 165 167 168 175
21 21 19 10 8 7 6 2 5 360 346 339 191 179 172 183 182 174 176 177 178 180 181 184 191 190 188 187 194 191 183 188 188 177 182 180 166 177 172 171 174 174 171
17 18 17 8 1 3 2 357 356 353 346 344 325 170 174 181 184 174 178 178 185 184 187 191 192 193 193 192 188 187 186 184 183 179 183 178 183 181 175 181 177 168 172
9 13 7 2 356 354 358 352 351 348 347 341 348 323 177 177 179 175 178 181 187 187 189 190 192 192 193 191 187 187 182 181 181 177 182 183 187 185 179 172 175 157 162
1 3 357 355 351 349 347 345 344 342 339 337 338 335 216 171 180 173 175 179 185 185 185 190 188 186 194 195 193 183 184 186 184 185 184 181 181 190 187 189 184 178 172
355 354 347 345 336 340 339 339 334 330 338 335 333 344 332 194 175 170 179 183 184 183 191 191 189 195 197 197 195 195 186 188 191 187 182 176 182 178 174 190 187 191 195
344 340 335 335 330 329 332 330 329 334 337 333 340 346 348 330 175 169 179 182 185 186 189 191 192 189 197 196 196 193 184 188 190 187 183 182 173 174 170 169 166 171 181
329 325 326 322 323 325 330 327 331 337 337 342 343 339 341 331 224 183 179 177 175 183 183 186 189 190 196 194 194 188 174 181 182 181 179 177 170 176 175 165 161 163 188
331 330 326 326 325 329 329 322 329 336 340 336 329 324 323 315 273 193 176 164 184 180 174 180 189 193 185 192 190 179 172 172 170 169 173 179 170 175 178 166 164 174 191
324 324 326 322 317 320 318 320 324 332 330 321 317 318 317 306 281 193 131 164 151 148 157 162 162 171 175 186 189 180 174 173 165 174 171 175 176 175 176 165 158 166 150
323 321 319 317 314 317 321 322 322 321 323 321 317 313 309 307 267 170 132 136 144 154 148 140 144 159 175 189 190 180 178 172 164 176 174 171 171 169 167 158 162 170 142
315 316 317 313 317 318 321 320 317 321 321 321 313 309 308 299 226 159 159 145 151 161 162 167 166 172 173 183 185 179 182 181 168 164 166 160 162 162 157 151 159 132 121
318 320 318 313 310 316 319 311 311 316 317 318 309 301 291 278 156 122 164 166 165 163 167 168 167 161 162 168 171 169 176 177 167 160 154 153 147 131 139 133 116 120 128
308 310 306 307 308 315 315 312 315 317 315 305 293 294 279 197 149 137 180 205 204 186 177 183 176 165 170 180 173 165 164 160 163 148 141 136 133 124 116 113 117 125 128
324 323 322 317 313 317 308 302 297 277 283 301 301 287 276 190 146 126 113 228 203 197 196 175 169 175 178 170 170 164 160 159 154 140 137 134 136 141 135 133 133 126 126